#timestamp,LO_Frequency,Hit 
1499328015.8,286046927.0,N
1499328035.7,286046927.6,N
1499328055.5,286046928.5,N
1499328075.3,286046929.0,N
1499328095.1,286046927.3,N
1499328115.9,286046926.5,N
1499328135.7,286046926.1,N
1499328155.5,286046925.7,N
1499328175.4,286046923.8,Y
1499328195.2,286046938.7,N
1499328215.0,286046936.9,N
1499328215.9,286046936.9,N
1499328235.8,286046938.4,N
1499328255.6,286046935.9,N
1499328275.4,286046935.2,N
1499328295.3,286046931.2,N
1499328315.1,286046935.1,N
1499328335.8,286046934.9,N
1499328355.7,286046932.5,N
1499328375.5,286046934.0,N
1499328395.3,286046931.5,N
1499328415.2,286046933.8,N
1499328435.9,286046931.3,N
1499328455.7,286046931.3,N
1499328475.6,286046931.6,N
1499328495.4,286046929.3,N
1499328515.2,286046931.5,N
1499328535.0,286046931.2,N
1499328535.9,286046931.2,N
1499328555.8,286046932.9,N
1499328575.6,286046935.1,N
1499328595.4,286046933.6,N
1499328615.3,286046931.7,N
1499328635.1,286046932.4,N
1499328655.8,286046928.0,N
1499328675.7,286046926.8,N
1499328695.5,286046928.6,N
1499328715.3,286046927.9,N
1499328735.2,286046926.1,N
1499328755.9,286046928.5,N
1499328775.7,286046927.0,N
1499328795.6,286046927.3,N
1499328815.4,286046928.1,N
1499328835.2,286046926.1,N
1499328855.0,286046930.6,N
1499328856.0,286046930.6,N
1499328875.8,286046931.9,N
1499328895.6,286046929.0,N
1499328915.4,286046927.2,N
1499328935.3,286046926.3,N
1499328955.1,286046929.2,N
1499328975.8,286046926.1,N
1499328995.7,286046926.8,N
1499329015.5,286046928.5,N
1499329035.3,286046927.7,N
1499329055.2,286046928.5,N
1499329075.9,286046930.8,N
1499329095.7,286046926.1,N
1499329115.6,286046927.2,N
1499329135.4,286046925.4,N
1499329155.2,286046923.4,N
1499329175.1,286046924.1,N
1499329176.0,286046924.1,N
1499329195.8,286046922.4,N
1499329215.6,286046920.2,Y
1499329235.5,286046936.9,N
1499329255.3,286046933.2,N
1499329275.1,286046935.5,N
1499329295.9,286046933.4,N
1499329315.7,286046933.9,N
1499329335.5,286046931.0,N
1499329355.3,286046934.0,N
1499329375.2,286046935.5,N
1499329395.0,286046935.3,N
1499329395.9,286046935.3,N
1499329415.7,286046934.9,N
1499329435.6,286046935.2,N
1499329455.4,286046933.2,N
1499329475.2,286046935.1,N
1499329495.1,286046935.5,N
1499329496.0,286046935.5,N
1499329515.8,286046933.2,N
1499329535.6,286046933.2,N
1499329555.5,286046931.9,N
1499329575.3,286046932.3,N
1499329595.1,286046932.4,N
1499329615.9,286046929.9,N
1499329635.7,286046927.8,N
1499329655.5,286046933.4,N
1499329675.4,286046929.4,N
1499329695.2,286046933.8,N
1499329715.0,286046931.9,N
1499329715.9,286046931.9,N
1499329735.8,286046931.9,N
1499329755.6,286046930.8,N
1499329775.4,286046929.1,N
1499329795.2,286046926.5,N
1499329815.1,286046928.2,N
1499329816.0,286046928.2,N
1499329835.8,286046928.3,N
1499329855.6,286046929.8,N
1499329875.5,286046930.3,N
1499329895.3,286046928.2,N
1499329915.1,286046927.1,N
1499329935.9,286046929.2,N
1499329955.7,286046928.5,N
1499329975.5,286046927.5,N
1499329995.4,286046926.0,N
1499330015.2,286046926.0,N
1499330035.0,286046922.9,N
1499330035.9,286046922.9,N
1499330055.8,286046925.9,N
1499330075.6,286046923.6,N
1499330095.4,286046923.2,N
1499330115.3,286046924.3,N
1499330135.1,286046923.8,N
1499330136.0,286046923.8,N
1499330155.8,286046923.9,N
1499330175.7,286046924.3,N
1499330195.5,286046920.1,Y
1499330215.3,286046942.2,N
1499330235.2,286046942.6,N
1499330255.9,286046945.0,N
1499330275.7,286046944.2,N
1499330295.5,286046945.1,N
1499330315.4,286046946.7,N
1499330335.2,286046945.7,N
1499330355.0,286046946.5,N
1499330355.9,286046946.5,N
1499330375.8,286046947.6,N
1499330395.6,286046947.5,N
1499330415.4,286046944.7,N
1499330435.3,286046945.1,N
1499330455.1,286046942.8,N
1499330475.8,286046945.1,N
1499330495.7,286046943.1,N
1499330515.5,286046940.6,N
1499330535.3,286046943.3,N
1499330555.2,286046943.4,N
1499330575.9,286046939.6,N
1499330595.7,286046941.5,N
1499330615.6,286046939.6,N
1499330635.4,286046939.3,N
1499330655.2,286046937.6,N
1499330675.0,286046935.9,N
1499330676.0,286046935.9,N
1499330695.8,286046936.1,N
1499330715.6,286046938.0,N
1499330735.4,286046938.7,N
1499330755.3,286046938.6,N
1499330775.1,286046937.6,N
1499330795.8,286046938.2,N
1499330815.7,286046936.9,N
1499330835.5,286046935.6,N
1499330855.3,286046935.6,N
1499330875.2,286046935.2,N
1499330895.9,286046933.4,N
1499330915.7,286046933.9,N
1499330935.6,286046933.6,N
1499330955.4,286046931.1,N
1499330975.2,286046933.9,N
1499330995.1,286046933.1,N
1499330996.0,286046933.1,N
1499331015.8,286046931.4,N
1499331035.6,286046931.4,N
1499331055.5,286046931.6,N
1499331075.3,286046931.7,N
1499331095.1,286046931.1,N
1499331115.8,286046930.0,N
1499331135.7,286046927.8,N
1499331155.5,286046930.8,N
1499331175.3,286046927.7,N
1499331195.2,286046929.5,N
1499331215.9,286046930.3,N
1499331235.7,286046928.3,N
1499331255.6,286046930.0,N
1499331275.4,286046927.9,N
1499331295.2,286046930.5,N
1499331315.1,286046928.2,N
1499331316.0,286046928.2,N
1499331335.8,286046926.1,N
1499331355.6,286046929.1,N
1499331375.5,286046926.4,N
1499331395.3,286046927.1,N
1499331415.1,286046927.1,N
1499331435.9,286046924.5,N
1499331455.7,286046927.3,N
1499331475.5,286046925.1,N
1499331495.3,286046925.8,N
1499331515.2,286046925.3,N
1499331535.0,286046925.8,N
1499331535.9,286046925.8,N
1499331555.7,286046924.8,N
1499331575.6,286046922.9,N
1499331595.4,286046924.3,N
